Regional Weather Roundup
Issued by NWS Northern Indiana

Home | Current Version | Previous Version | Graphics & Text | Print | Product List | Glossary Off
Versions: 1 2 3 4 5 6 7 8 9 10 11 12 13 14 15 16 17 18 19 20 21 22 23 24 25 26 27 28 29 30 31 32 33 34 35 36 37 38 39 40 41 42 43 44 45 46 47 48 49 50

000
ASUS43 KIWX 040310
RWRIWX

KIWX WEATHER ROUNDUP
NATIONAL WEATHER SERVICE NORTHERN INDIANA
1100 PM EDT MON AUG 03 2015

NOTE: "FAIR" INDICATES FEW OR NO CLOUDS BELOW 12,000 FEET WITH NO
SIGNIFICANT WEATHER AND/OR OBSTRUCTIONS TO VISIBILITY.

* THESE STATIONS ARE NOT UNDER NWS QUALITY CONTROL. THEY ALSO MAY NOT
  REPORT WEATHER SUCH AS PRECIPITATION OR FOG.

INZ001>027-040400-
NORTHERN INDIANA

CITY           SKY/WX    TMP DP  RH WIND       PRES   REMARKS
GARY*          CLEAR     63  61  94 W5        29.90R
VALPARAISO     CLEAR     66  57  72 CALM      29.92R
MICHIGAN CITY* CLEAR     61  59  94 CALM      29.91R
LAPORTE*       CLEAR     62  61  97 CALM      29.92R
KNOX*          CLEAR     61  61 100 CALM      29.91R
SOUTH BEND     CLEAR     66  56  70 SW5       29.91R
GOSHEN         CLEAR     62  57  83 CALM      29.91R
MONTICELLO*    CLEAR     65  59  81 CALM      29.92R
LOGANSPORT*    CLEAR     64  59  82 N3        29.93R
ROCHESTER*     CLEAR     66  61  82 CALM      29.92R
WARSAW*        CLEAR     61  57  88 CALM      29.91R
ANGOLA*        CLEAR     61  55  82 CALM      29.91R
FORT WAYNE     PTCLDY    66  55  67 CALM      29.92R
HUNTINGTON*    CLEAR     64  59  85 CALM      29.92R
PERU/GRISSOM   CLEAR     68  59  73 N5        29.92R
MARION*        CLEAR     66  60  81 N5        29.93R

$$
INZ028>050-040400-
CENTRAL INDIANA

CITY           SKY/WX    TMP DP  RH WIND       PRES   REMARKS
LAFAYETTE      CLEAR     64  58  80 NW3       29.92R
KOKOMO*        CLEAR     68  57  68 N3        29.92R
MUNCIE*        CLEAR     67  63  87 N6        29.91R
INDIANAPOLIS   CLEAR     74  62  66 NW8       29.91R

$$
MIZ043>046-050>051-056>058-064>065-071>073-077>080-040400-
SOUTHWEST LOWER MICHIGAN

CITY           SKY/WX    TMP DP  RH WIND       PRES   REMARKS
BATTLE CREEK     N/A    N/A N/A N/A MISG      29.90R
BENTON HARBOR  CLEAR     61  57  87 CALM      29.89R
COLDWATER*     CLEAR     61  53  76 SW3       29.91R
HILLSDALE*     CLEAR     63  53  68 CALM      29.91R
HOLLAND        CLOUDY    67  55  65 SW6       29.88R
GRAND RAPIDS   PTCLDY    65  53  65 SW7       29.87R
KALAMAZOO      CLEAR     64  53  67 SW3       29.90R
STURGIS*       CLEAR     61  55  82 CALM      29.90R
THREE RIVERS*  FAIR      60  56  84 CALM      29.90S

$$
OHZ001>008-015>018-024>025-040400-
NORTHWEST OHIO

CITY           SKY/WX    TMP DP  RH WIND       PRES   REMARKS
WAUSEON*       FAIR      63  55  77 W6        29.89R
DEFIANCE       CLEAR     63  56  78 CALM      29.90R
FINDLAY        CLEAR     68  52  56 NW6       29.88R
TOLEDO EXPRESS CLEAR     66  53  63 W7        29.88R
TOLEDO METCALF CLEAR     68  51  54 W8        29.88R
LIMA           CLEAR     67  53  61 N6        29.91R

$$
AND FOR LAKE MICHIGAN COASTAL AND OPEN LAKE BUOY OBSERVATIONS

STATION/POSITION TEMP    WIND        PRES    VSBY  WAVE
                 AIR SEA DIR/SP/G                  HT/PER
                 (F)     (DEG/KT/KT) (MB)    (MI)  (FT/S)
CALUMET HARBOR    76     270/  2/  5   N/A
MICHIGAN CITY     73     160/  3/  5   N/A
BURNS HARBOR      73     180/  3/  5 1012.5R
SAINT JOSEPH      69     170/  4/  5 1012.5R
4 MI NW BRIDGMAN  73 74  250/  8/ 10   N/A           1/ 4
MICHIGAN CITY     73 74  220/  6/  8   N/A           1/ 4
MICHIGAN CITY CG  73 75     CALM       N/A       6   0

$$
&&


USA.gov is the U.S. government's official web portal to all federal, state and local government web resources and services.